Tracking 31027 objects as of 19-Jul-2025
HD Live streaming from Space Station
objects crossing your sky now

STARLINK-30137

Track STARLINK-30137 now!
10-day predictions
STARLINK-30137 is classified as:


NORAD ID: 56843
Int'l Code: 2023-079W
Perigee: 565.2 km
Apogee: 567.3 km
Inclination: 43.0 °
Period: 95.8 minutes
Semi major axis: 6937 km
RCS: Unknown
Launch date: June 4, 2023
Source: United States (US)
Launch site: AIR FORCE EASTERN TEST RANGE (AFETR)
Your satellite tracking list
IRIDIUM 134
Track 1 satellite(s)




NASA's NSSDC Master Catalog

Two Line Element Set (TLE):
1 56843U 23079W   25199.55069203 -.00000703  00000-0 -36956-4 0  9998
2 56843  43.0049 299.5367 0001519 272.5553  87.5116 15.02533557117669
Source of the keplerian elements: AFSPC